Location: Fort Wayne
(41.1310°N, 85.1290°W)
Time: 00:50:24
(UTC-04:00)

SR - Visible Passes

Search period start: 27 April 2018 00:00
Search period end: 07 May 2018 00:00
Orbit: 578 x 879 km, 66.7° (Epoch: 26 April)

Date Brightness Start Highest point End Pass type
(mag) Time Alt. Az. Time Alt. Az. Time Alt. Az.
27 Apr ? 21:23:37 10° NNW 21:29:12 77° ENE 21:34:46 11° SE visible
27 Apr ? 23:07:19 10° WNW 23:10:45 16° WSW 23:14:14 10° SW visible
28 Apr ? 22:16:36 10° NW 22:21:32 32° WSW 22:26:37 10° S visible
29 Apr ? 21:26:37 10° NW 21:32:10 61° WSW 21:37:57 10° SSE visible
30 Apr ? 22:20:35 10° WNW 22:24:13 17° WSW 22:27:56 10° SW visible
01 May ? 21:29:56 10° NW 21:34:59 34° WSW 21:40:12 10° S visible
03 May ? 21:33:51 10° WNW 21:37:41 19° WSW 21:41:34 10° SSW visible
